User: anonymous   Login
Location: Fort Wayne
(41.1310°N, 85.1290°W)
Time: 21:43:27
(UTC-04:00)
Language:

ISS - Orbit

View from above orbital plane
View from above orbital plane
View from above satellite
View from above satellite

Ground track
Ground track

The orbit data is extracted from the following two-line orbital elements,

1 25544U 98067A   16152.82699897  .00002610  00000-0  45699-4 0  9999
2 25544  51.6434 139.6413 0001763 139.3344 300.8317 15.54717520  2445
Epoch (UTC): 31 May 2016 19:50:52
Eccentricity: 0.0001763
inclination: 51.6434°
perigee height: 402 km
apogee height: 404 km
right ascension of ascending node: 139.6413°
argument of perigee: 139.3344°
revolutions per day: 15.54717520
mean anomaly at epoch: 300.8317°
orbit number at epoch: 244

The dashed part of the orbit path shows where the satellite is in the earth's shadow,  

DLR